Hourly Data Report for September 30, 2019

All times are specified in Local Standard Time (LST). Add 1 hour to adjust for Daylight Saving Time where and when it is observed.

EUREKA CLIMATE
NUNAVUT
Current Station Operator: ECCC - MSC

79°59'21.000" N
85°56'02.000" W
10.00 m
2401199
71613
NEK

Download Data

Hourly Data (September 2019)
Hourly Data Report for September 30, 2019
TIME Temp Definition
°C
Dew Point Definition
°C
Rel Hum Definition
%
Wind Dir Definition
10's deg

Wind Spd Definition
km/h
Visibility Definition
km
Stn Press Definition
kPa
Hmdx Definition


Wind Chill Definition


Weather Definition


00:00 0.7 0.0 95 11 8   101.23     LegendNANA
01:00 0.7 -0.2 94 11 14   101.24     LegendNANA
02:00 -0.1 -0.8 95 11 15   101.24   -5 LegendNANA
03:00 0.0 -0.7 95 11 10   101.27   -3 LegendNANA
04:00 0.4 -0.8 91 5 7   101.26     LegendNANA
05:00 0.2 -0.6 95 7 10   101.26     LegendNANA
06:00 0.3 -0.5 95 9 4   101.28     LegendNANA
07:00 0.3 -0.5 94 10 12   101.26     LegendNANA
08:00 -0.1 -1.2 93 6 4   101.27   -1 LegendNANA
09:00 -0.1 -0.6 97 11 13   101.25   -4 LegendNANA
10:00 -0.1 -0.8 94 10 5   101.26   -2 LegendNANA
11:00 0.2 -0.7 94 11 10   101.25     LegendNANA
12:00 0.7 -0.5 92 7 2   101.24     LegendNANA
13:00 0.2 -0.6 94 9 7   101.25     LegendNANA
14:00 -0.1 -0.7 95 2 8   101.23   -3 LegendNANA
15:00 -0.4 -0.8 97 3 6   101.21   -2 LegendNANA
16:00 -0.6 -1.0 97 2 7   101.18   -3 LegendNANA
17:00 0.1 -0.2 98 2 5   101.16     LegendNANA
18:00 -0.3 -0.6 97   0   101.13     LegendNANA
19:00 -0.1 -0.2 99 10 2   101.08   -1 LegendNANA
20:00 -0.7 -0.8 99   0   101.04     LegendNANA
21:00 -0.1 -0.2 99 0 1   101.00   0 LegendNANA
22:00 -0.2 -0.3 99 31 5   100.97   -2 LegendNANA
23:00 -0.1 -0.2 100 0 1   100.94   0 LegendNANA

Notes on Data Quality.

Legend

  • E = Estimated
  • M = Missing
  • NA = Not Available
Date modified: